Location: Killam
(52.7910°N, 111.8608°W)
Time: 20:22:40
(UTC+00:00)

Vanguard 2 Rocket - Pass Details

Date: 21 February 2026
Orbit: 553 x 3286 km, 32.9° (Epoch: 8 March)

Event Time Altitude Azimuth Distance (km) Brightness Sun altitude
Rises 23:09:17 0° 263° (W) 6,964 12.5 12.9°
Reaches altitude 10° 23:15:31 10° 253° (WSW) 5,600 12.6 12.2°
Maximum altitude 23:26:45 24° 209° (SSW) 3,651 11.2 10.8°
Drops below altitude 10° 23:34:43 10° 160° (SSE) 3,853 10.3 9.8°
Sets 23:38:02 0° 146° (SSE) 4,451 10.4 9.3°
